User: anonymous   Login
Location: Vancouver
(49.2500°N, 123.1330°W)
Time: 20:34:41
(UTC-08:00)
Language:

Cosmos 1340 Rocket - Orbit

View from above orbital plane
View from above orbital plane
View from above satellite
View from above satellite

Ground track
Ground track

The orbit data is extracted from the following two-line orbital elements,

1 13068U 82013B   16337.21000577  .00000333  00000-0  20725-4 0  9993
2 13068  81.2051  87.3126 0021439 245.6030 114.2957 15.06788321893834
Epoch (UTC): 02 December 2016 05:02:24
Eccentricity: 0.0021439
inclination: 81.2051°
perigee height: 531 km
apogee height: 561 km
right ascension of ascending node: 87.3126°
argument of perigee: 245.6030°
revolutions per day: 15.06788321
mean anomaly at epoch: 114.2957°
orbit number at epoch: 89383

The dashed part of the orbit path shows where the satellite is in the earth's shadow,  

DLR